* Astronomy

Members Login
Username 
 
Password 
    Remember Me  
Post Info TOPIC: Asteroid 2011 CM50


L

Posts: 131433
Date:
Asteroid 2011 CM50
Permalink  
 


Orbital elements:
2011 CM50 Earth MOID = 0.1784 AU
Epoch 2011 Feb. 8.0 TT = JDT 2455600.5 MPC
M 351.87292 (2000.0) P Q
n 0.50765990 Peri. 185.79056 -0.89633485 -0.40625123
a 1.5562791 Node 328.29590 +0.41914947 -0.64579683
e 0.2508271 Incl. 19.75225 +0.14455990 -0.64645680
P 1.94 H 22.8 G 0.15 U 9

MPEC 2011 - C90


__________________
Page 1 of 1  sorted by
 
Quick Reply

Please log in to post quick replies.



Create your own FREE Forum
Report Abuse
Powered by ActiveBoard